星链-1350 (STARLINK-1350 )

导读

STARLINK-1350是美国SpaceX公司星链星座的第一代低轨通信卫星,于2020年4月22日发射入轨,属于星链早期组网卫星。星链星座旨在为全球提供覆盖偏远地区的高速宽带互联网服务,该卫星采用平板设计,搭载霍尔推进器,具备自主运行能力,设计寿命约5-7年,退役后会主动离轨坠入大气层销毁,减少太空垃圾。

基本信息
目录编号:
45535
目录名称:
STARLINK-1350
国际标识:
2020-025E
轨道中心:
EARTH
卫星名称:
星链-1350
卫星全名:
星链-1350 (STARLINK-1350 )
卫星状态:
在轨 (已飞行2244 天)
发射日期:
2020-04-22 UTC
国别 :
美国 (US)
星等 :
--
轨道信息
数据来源 国际轨道数据
星历时间: 2026-06-14T00:26:23+0800
22小时前
查看轨道信息
半长轴: 6829.088km
偏心率: 0.0001362
轨道倾角: 53.073°
近地点辐角 66.528°
升交点赤经 301.509°
平近点角 293.587°
近地点: 450.02km
远地点: 451.882km
周期: 93.606分钟
每日圈数: 15.383627
详细信息
固有亮度:
5
最大亮度:
2.5
卫星平台:
Starlink V1.0
覆盖范围:
全球
运营商:
太空探索技术公司
运营商所在国:
美国
制造商(研发单位):
太空探索技术公司
制造商所在国:
美国
使用方式:
暂无
卫星简介
星链(Starlink)计划是由太空探索技术公司(SpaceX)提出的一个巨型低轨卫星互联网星座项目,计划在2019年至2024年间在太空搭建由约1.2万颗卫星组成的“星链”网络,其中1584颗将部署在地球上空550千米处的近地轨道,并从2020年开始工作。该卫星仍在工作。
2D轨道图
3D轨道图
轨道高度分析图
轨道倾角分析图
轨道综合分析图
查看轨道综合分析图